Wild Boar Gully, Santa Catalina Island Weather observations

Data are for 10 minute period ending at time listed.
 Day   Time   Solar   Ave.   Ave.  Ave.  Vector    Max.   Stn.    Total
  of    of     Rad.   Air    Rel.  Wind   Wind     Wind   Baro.  Precip.
Year   Day            Temp.  Hum.  Speed  Dir.     Gust   Pres.         
2014   (PST)   W/m2    F      %     mph   deg.      mph    mb.     in.  
------------------------------------------------------------------------
 263   14:30  525.0    74   66.4    11    263.7    17.9    999.0   0.00  
 263   14:40  504.0    73   68.2    13    267.1    20.3    999.0   0.00  
 263   14:50  481.0    74   67.9    11    255.3    20.9    999.0   0.00  
 263   15:00  457.0    74   66.7    10    258.7    18.5    999.0   0.00  
 263   15:10  434.0    74   66.0    11    262.4    19.1    999.0   0.00  
 263   15:20  409.0    74   65.4    12    255.2    17.3    999.0   0.00  
 263   15:30  383.0    74   64.4    10    258.5    18.5    999.0   0.00  
 263   15:40  357.0    73   65.1    12    258.8    20.9    999.0   0.00  
 263   15:50  330.0    74   65.3    11    269.4    19.1    999.0   0.00  
 263   16:00  303.0    73   65.8    12    263.4    16.7    999.0   0.00  
 263   16:10  275.0    74   65.2    10    261.0    19.7    999.0   0.00  
 263   16:20  246.0    73   66.0    11    268.8    16.1    999.0   0.00  
 263   16:30  218.0    72   66.4    10    275.0    15.5    999.0   0.00  
 263   16:40  190.0    72   67.1    11    274.6    16.7    999.0   0.00  
 263   16:50  162.0    73   66.8     9    254.1    15.5    999.0   0.00  
 263   17:00  134.0    72   67.9     9    268.0    14.9    999.0   0.00  
 263   17:10  108.0    71   68.8    10    278.2    14.9    999.0   0.00  
 263   17:20   81.0    71   70.4     9    264.8    15.5    999.0   0.00  
 263   17:30   49.0    71   71.1     9    269.4    13.7    999.0   0.00  
 263   17:40   29.0    70   72.5    10    269.4    14.9    999.0   0.00  
 263   17:50   11.0    69   73.8     9    266.9    14.3    999.0   0.00  
 263   18:00    4.0    69   75.5    10    268.6    15.5    999.0   0.00  
 263   18:10    0.0    68   77.3    11    274.9    14.3    999.0   0.00  
 263   18:20    0.0    68   78.3    10    276.8    15.5    999.0   0.00  
 263   18:30    0.0    68   79.1     9    271.6    14.3    999.0   0.00  
 263   18:40    0.0    68   79.2    10    269.9    14.3    999.0   0.00  
 263   18:50    0.0    68   79.2    10    270.5    14.3    999.0   0.00  
 263   19:00    0.0    68   79.2    10    274.7    14.9    999.0   0.00  
 263   19:10    0.0    68   79.3    11    275.6    13.7    999.0   0.00  
 263   19:20    0.0    67   79.7    10    277.1    13.1    999.0   0.00  
 263   19:30    0.0    67   80.0     9    278.5    13.1    999.0   0.00  
 263   19:40    0.0    67   79.8     8    288.2    11.9    999.0   0.00  
 263   19:50    0.0    67   79.9    10    286.5    13.1    999.0   0.00  
 263   20:00    0.0    67   80.3    10    288.2    13.1    999.0   0.00  
 263   20:10    0.0    67   80.4    10    280.4    14.9    999.0   0.00  
 263   20:20    0.0    67   80.3     9    284.7    13.7    999.0   0.00  
 263   20:30    0.0    67   79.9    10    280.9    13.1    999.0   0.00  
 263   20:40    0.0    67   79.4    10    288.5    12.5    999.0   0.00  
 263   20:50    0.0    67   79.3     8    288.7    11.9    999.0   0.00  
 263   21:00    0.0    67   79.4     8    291.7    11.3    999.0   0.00  
 263   21:10    0.0    67   79.3     7    296.4     9.6    999.0   0.00  
 263   21:20    0.0    67   79.7     7    304.9    10.2    999.0   0.00  
 263   21:30    0.0    67   80.1     8    311.1    10.2    999.0   0.00  
 263   21:40    0.0    66   80.1     6    313.1     9.0    999.0   0.00  
 263   21:50    0.0    66   80.1     7    311.2     9.0    999.0   0.00  
 263   22:00    0.0    66   80.2     8    309.4     9.6    999.0   0.00  
 263   22:10    0.0    67   80.2     8    313.1    10.2    999.0   0.00  
 263   22:20    0.0    67   80.0     8    312.9    10.8    999.0   0.00  
 263   22:30    0.0    67   79.8     8    312.2    10.2    999.0   0.00  
 263   22:40    0.0    67   79.6     7    314.2     9.6    999.0   0.00  
 263   22:50    0.0    67   79.5     7    313.3     9.6    999.0   0.00  
 263   23:00    0.0    67   79.6     8    312.6    10.2    999.0   0.00  
 263   23:10    0.0    67   79.7     7    313.2    10.2    999.0   0.00  
 263   23:20    0.0    67   79.7     6    322.9     8.4    999.0   0.00  
 263   23:30    0.0    67   79.9     5    313.6     7.2    999.0   0.00  
 263   23:40    0.0    67   80.2     5    318.2     7.8    999.0   0.00  
 263   23:50    0.0    67   80.3     4    316.5     5.4    999.0   0.00  
 264    0:00    0.0    67   80.3     5    323.2     7.2    999.0   0.00  
 264    0:10    0.0    67   80.2     5    318.1     7.2    999.0   0.00  
 264    0:20    0.0    67   80.1     5    325.3     6.6    999.0   0.00  
 264    0:30    0.0    67   80.1     4    324.3     6.0    999.0   0.00  
 264    0:40    0.0    68   79.9     4    345.2     6.0    999.0   0.00  
 264    0:50    0.0    68   79.7     5      2.1     6.0    999.0   0.00  
 264    1:00    0.0    67   79.6     5      0.4     7.8    999.0   0.00  
 264    1:10    0.0    67   79.6     5     16.5     6.6    999.0   0.00  
 264    1:20    0.0    67   79.8     6     26.4     7.2    999.0   0.00  
 264    1:30    0.0    66   80.0     6     24.5     7.2    999.0   0.00  
 264    1:40    0.0    65   79.7     4     40.3     7.2    999.0   0.00  
 264    1:50    0.0    65   79.4     2     64.0     4.2    999.0   0.00  
 264    2:00    0.0    66   79.1     2     84.5     4.2    999.0   0.00  
 264    2:10    0.0    65   78.7     2     39.0     4.8    999.0   0.00  
 264    2:20    0.0    65   78.8     2     63.2     3.6    999.0   0.00  
 264    2:30    0.0    65   78.7     2     30.6     4.2    999.0   0.00  
 264    2:40    0.0    65   78.5     4     40.7     6.0    999.0   0.00  
 264    2:50    0.0    66   78.4     2     38.0     4.2    999.0   0.00  
 264    3:00    0.0    66   78.1     2     90.3     3.0    999.0   0.00  
 264    3:10    0.0    66   77.6     2     77.1     4.2    999.0   0.00  
 264    3:20    0.0    67   77.1     4     73.5     4.8    999.0   0.00  
 264    3:30    0.0    66   77.1     3     96.7     3.6    999.0   0.00  
 264    3:40    0.0    66   77.3     1    105.1     2.4    999.0   0.00  
 264    3:50    0.0    66   77.5     2    100.6     3.6    999.0   0.00  
 264    4:00    0.0    67   77.4     2     90.8     3.0    999.0   0.00  
 264    4:10    0.0    67   77.0     2     96.1     3.0    999.0   0.00  
 264    4:20    0.0    67   77.4     4     69.2     4.8    999.0   0.00  
 264    4:30    0.0    67   76.8     5     61.7     5.4    999.0   0.00  
 264    4:40    0.0    67   76.5     3     56.1     5.4    999.0   0.00  
 264    4:50    0.0    67   76.7     2     54.8     3.0    999.0   0.00  
 264    5:00    0.0    67   76.4     2     36.4     4.2    999.0   0.00  
 264    5:10    0.0    67   75.3     2     35.6     3.6    999.0   0.00  
 264    5:20    0.0    67   74.6     3     18.2     4.2    999.0   0.00  
 264    5:30    0.0    68   73.5     4    356.4     6.0    999.0   0.00  
 264    5:40    0.0    68   72.5     4    349.4     6.0    999.0   0.00  
 264    5:50    0.0    68   72.1     4    328.7     5.4    999.0   0.00  
 264    6:00    6.0    68   71.6     5    348.7     7.2    999.0   0.00  
 264    6:10   11.0    68   71.3     4    356.6     6.0    999.0   0.00  
 264    6:20   21.0    69   70.9     4     10.8     6.6    999.0   0.00  
 264    6:30   30.0    69   70.9     4     27.5     7.2    999.0   0.00  
 264    6:40   41.0    69   70.9     5     37.9     7.2    999.0   0.00  
 264    6:50   63.0    69   70.4     4     27.7     7.2    999.0   0.00  
 264    7:00   99.0    69   69.9     5     43.7     7.8    999.0   0.00  
 264    7:10  192.0    70   68.2     4     35.6     6.0    999.0   0.00  
 264    7:20  239.0    71   66.3     5     34.0     7.2    999.0   0.00  
 264    7:30  210.0    72   67.1     3    252.7     5.4    999.0   0.00  
 264    7:40  394.0    71   71.9     4    240.3     6.6    999.0   0.00  
 264    7:50  260.0    72   70.4     5    225.6     9.0    999.0   0.00  
 264    8:00  221.0    71   71.7     7    257.8    11.9    999.0   0.00  
 264    8:10  145.0    70   73.6     8    272.4    11.9    999.0   0.00  
 264    8:20  311.0    71   73.9     9    274.2    13.7    999.0   0.00  
 264    8:30  230.0    71   73.5     9    266.7    13.7    999.0   0.00  
 264    8:40  249.0    70   74.2    10    263.8    14.3    999.0   0.00  
 264    8:50  226.0    71   74.1    10    279.5    15.5    999.0   0.00  
 264    9:00  321.0    71   74.0    11    273.6    16.1    999.0   0.00  
 264    9:10  311.0    71   73.9    10    282.5    16.1    999.0   0.00  
 264    9:20  379.0    71   73.7    10    272.6    15.5    999.0   0.00  
 264    9:30  320.0    71   72.7    12    263.1    17.3    999.0   0.00  
 264    9:40  285.0    71   73.3    11    261.8    17.9    999.0   0.00  
 264    9:50  273.0    71   73.8    12    275.4    17.9    999.0   0.00  
 264   10:00  258.0    70   74.4    14    285.4    19.1    999.0   0.00  
 264   10:10  255.0    71   74.3    13    276.6    17.9    999.0   0.00  
 264   10:20  278.0    71   72.9    14    270.7    18.5    999.0   0.00  
 264   10:30  294.0    71   71.9    14    270.4    17.3    999.0   0.00  
 264   10:40  315.0    71   70.8    13    270.8    17.9    999.0   0.00  
 264   10:50  345.0    71   70.2    15    270.3    19.7    999.0   0.00  
 264   11:00  391.0    72   69.4    14    270.4    19.1    999.0   0.00  
 264   11:10  681.0    72   69.0    13    280.7    18.5    999.0   0.00  
 264   11:20  669.0    73   67.4    12    278.9    17.9    999.0   0.00  
 264   11:30  725.0    74   65.5    12    262.8    20.3    999.0   0.00  
 264   11:40  730.0    74   65.7    13    257.3    19.7    999.0   0.00  
 264   11:50  708.0    74   65.9    14    259.0    20.3    999.0   0.00  
 264   12:00  705.0    74   65.3    15    258.7    21.5    999.0   0.00  
 264   12:10  702.0    74   65.4    15    259.8    21.5    999.0   0.00  
 264   12:20  699.0    74   65.4    14    260.6    22.7    999.0   0.00  
 264   12:30  695.0    74   66.0    15    266.7    22.1    999.0   0.00  
 264   12:40  688.0    74   66.6    15    277.8    25.0    999.0   0.00  
 264   12:50  681.0    74   65.5    14    282.8    20.9    999.0   0.00  
 264   13:00  671.0    74   65.6    15    278.5    21.5    999.0   0.00  
 264   13:10  660.0    73   67.3    15    278.8    24.5    999.0   0.00  
 264   13:20  647.0    74   66.8    16    274.9    23.9    999.0   0.00  
 264   13:30  634.0    73   69.0    16    274.0    22.1    999.0   0.00  
 264   13:40  618.0    72   70.1    17    274.9    20.9    999.0   0.00  
 264   13:50  603.0    72   70.2    17    276.8    26.2    999.0   0.00  
 264   14:00  584.0    73   69.8    15    278.2    22.1    999.0   0.00  
 264   14:10  566.0    72   69.9    16    275.8    21.5    999.0   0.00  
 264   14:20  546.0    73   69.3    16    280.5    22.1    999.0   0.00  

Return to Wild Boar Gully graphs page.


Western Regional Climate Center,wrcc@dri.edu